Regional Weather Roundup
Issued by NWS Sioux Falls, SD

Home | Current Version | Previous Version | Text Only | Print | Product List | Glossary On
Versions: 1 2 3 4 5 6 7 8 9 10 11 12 13 14 15 16 17 18 19 20 21 22 23 24 25 26 27 28 29 30 31 32 33 34 35 36 37 38 39 40 41 42 43 44 45 46 47 48 49 50
000
ASUS43 KFSD 300102
RWRFSD

WEATHER ROUNDUP FOR SE SOUTH DAKOTA/SW MINNESOTA/NW IOWA
NATIONAL WEATHER SERVICE SIOUX FALLS SD
800 PM CDT WED OCT 29 2014

NOTE: "FAIR" INDICATES FEW OR NO CLOUDS BELOW 12,000 FEET WITH NO
SIGNIFICANT WEATHER AND OR OBSTRUCTIONS TO VISIBILITY.


SDZ038>040-050-052>070-300200-
SOUTHEAST SOUTH DAKOTA

CITY           SKY/WX    TMP DP  RH WIND       PRES   REMARKS
CHAMBERLAIN    CLOUDY    50  32  49 SE6       29.97S
HURON          CLOUDY    49  30  48 S9        30.00F
MADISON        FAIR      43  32  65 S9        30.03F
MITCHELL       MOCLDY    48  33  56 SE7       30.01F
SIOUX FALLS    MOCLDY    46  31  55 S5        30.05S
WINNER         CLOUDY    56  27  32 SE8       29.97R
YANKTON        MOCLDY    46  30  53 E6        30.04F
$$

MNZ071-072-080-081-089-090-097-098-300200-
SOUTHWEST MINNESOTA

CITY           SKY/WX    TMP DP  RH WIND       PRES   REMARKS
FAIRMONT       CLEAR     37  25  60 SE3       30.08S
JACKSON        PTCLDY    43  28  56 S5        30.08R
LUVERNE        PTCLDY    41  32  70 CALM      30.07S
MARSHALL       MOCLDY    43  28  56 S6        30.04S
MONTEVIDEO     PTCLDY    37  34  87 SE6       30.06F
PIPESTONE      MOCLDY    39  28  65 S6        30.05S
REDWOOD FALLS  PTCLDY    42  29  59 E5        30.07R
TRACY          MOCLDY    40  31  71 S3        30.06R
WINDOM         PTCLDY    41  30  65 CALM      30.07S
WORTHINGTON    PTCLDY    43  28  56 S3        30.07S
$$

IAZ001>003-012>014-020>022-031-032-NEZ013-014-SDZ071-300200-
NORTHWEST IOWA

CITY           SKY/WX    TMP DP  RH WIND       PRES   REMARKS
CHEROKEE       CLEAR     41  32  71 CALM      30.09R
DENISON        CLEAR     41  32  70 SE3       30.08R
ESTHERVILLE    CLEAR     38  27  64 S6        30.07S
LE MARS        PTCLDY    43  32  65 CALM      30.08S
ORANGE CITY    PTCLDY    46  30  53 S3        30.07S
SHELDON        MOCLDY    41  30  65 S3        30.07R
SIOUX CITY     PTCLDY    45  31  58 SE7       30.08R
SPENCER        PTCLDY    37  29  72 S6        30.08R
STORM LAKE     CLEAR     43  30  61 S6        30.09R
$$

ABBREVIATIONS USED IN REMARKS
   TC - TEMPERATURE IN CELSIUS
  WCI - WIND CHILL INDEX
   HX - HEAT INDEX
  VSB - VISIBILITY




USA.gov is the U.S. government's official web portal to all federal, state and local government web resources and services.